Location: Olomouc
(49.5830°N, 17.2500°E)
Time: 13:08:22
(UTC+01:00)

ISS - Visible Passes

Search period start: 11 February 2026 00:00
Search period end: 21 February 2026 00:00
Orbit: 413 x 429 km, 51.6° (Epoch: 10 February)

Date Brightness Start Highest point End Pass type
(mag) Time Alt. Az. Time Alt. Az. Time Alt. Az.
12 Feb -1.3 06:21:08 10° SSW 06:23:48 23° SE 06:26:30 10° E visible
13 Feb -0.9 05:34:52 10° S 05:36:57 16° SE 05:39:01 10° E visible
14 Feb -0.6 04:49:41 10° SE 04:50:07 10° SE 04:50:32 10° SE visible
14 Feb -2.8 06:23:04 10° SW 06:26:18 48° SSE 06:29:32 10° ENE visible
15 Feb -2.3 05:36:20 10° SSW 05:39:18 33° SSE 05:42:22 10° E visible
16 Feb -1.8 04:51:30 21° SSE 04:52:20 23° SE 04:55:04 10° E visible
16 Feb -3.7 06:25:31 10° WSW 06:28:53 89° SE 06:32:14 10° ENE visible
17 Feb -0.8 04:06:31 14° ESE 04:06:31 14° ESE 04:07:32 10° E visible
17 Feb -3.6 05:39:31 19° WSW 05:41:46 68° SSE 05:45:06 10° ENE visible
18 Feb -3.2 04:54:25 47° S 04:54:40 49° SSE 04:57:55 10° ENE visible
19 Feb -1.3 04:09:12 21° E 04:09:12 21° E 04:10:41 10° E visible
19 Feb -3.8 05:42:11 21° W 05:44:17 74° NNW 05:47:38 10° ENE visible
20 Feb -4.0 04:56:54 79° WSW 04:57:05 90° NNW 05:00:27 10° ENE visible
